ONEWEB-0062, 45163

Orbit data source: Space-Track

ONEWEB-0062, 45163 is a payload satellite owned by One Web (UK) in LEO that was launched on Thu, 06 Feb 2020 UTC via a SOYUZ-2-1B launch vehicle from the Tyuratam Missile And Space Complex (TTMTR). Payload-class satellites include a variety of spacecraft equipped with specific instruments for various scientific and technological missions. These include communications satellites like Starlink; space stations such as the ISS; scientific satellites like the Hubble; Earth observation satellites from companies like Planet Labs, Umbra, and HawkEye 360; GPS; miniature CubeSats for education and research; and military/defense satellites.

Loading next visibility...
Identifier
45163, 2020-008AJ
Orbit
LEO
Country
Flag of UKUK
Related business
Manufacturer
One Web
Mission
Operational Commercial Communications
Bus & Motor
ARROW, Unknown motor
Mass
148 kg wet, ~140 kg dry
Launch date (UTC)
2020-02-06 (6 years ago)
Launch vehicle
SOYUZ-2-1B
Launch site
Tyuratam Missile And Space Complex (TTMTR)
Object type
Payload
Rocket body
Debris
Shape & HBR
Trap Box + 2 Pan, 6.7 m
Radar Cross Section
3.464 m², Large (>1 m²)

Expand to show TLE details & history
Last TLE update: 9 hours ago

TLE from 9 hours ago
0 ONEWEB-0062
1 45163U 20008AJ  26130.50973939 -.00015152  00000-0 -43454-1 0  9993
2 45163  87.8861  43.7617 0001609  62.9208 297.2084 13.10465119303256
Epoch: 2026-05-10T12:14Z
TLE epoch observation values (Epoch: 2026-05-10T12:14:01.483Z)
Latitude
0.00005°
Longitude
-8.05627°
Altitude
1,223.689 km
Speed
7.243 km/s
True Right ascension
02h 55m 02s
True Declination
0° 00' 00"
Sunlit
Object was in daylight at epoch
Visualization orbit readout
Latitude
Unknown
Longitude
Unknown
Altitude
Unknown
Speed
Unknown
Apparent Right ascension
Unknown
Apparent Declination
Unknown
Sunlit
N/A
Visualization observer readout
Local Sidereal Time
05:19:46
Azimuth
Unknown
Elevation
Unknown
Doppler factor
Unknown
Orbital elements
Apogee altitude
1,219.702 km
Perigee altitude
1,217.258 km
Semi-major axis
7,596.617 km
Eccentricity
0.00016
Inclination
87.8861°
RAAN
43.7617°
Arg. of periapsis
62.9208°
True anomaly
297.192°
Mean anomaly
297.2084°
Eccentric anomaly
297.2002°
Mean motion
3.27803 °/min
Orbital period
109.82 mins
BSTAR
-0.043454
Loading maneuver chart data...
Computing Atmospheric mass density...
Loading historical data...
Loading historical data...
Loading historical data...
Loading historical data...
Loading historical data...
Loading historical data...
Loading historical data...

Documentation

Showing up to 5 results
|